Time,TemperatureF,DewpointF,PressureIn,WindDirection,WindDirectionDegrees,WindSpeedMPH,WindSpeedGustMPH,Humidity,HourlyPrecipIn,Conditions,Clouds,dailyrainin,SoftwareType,DateUTC
2013-12-27 00:04:00,51.2,12.6,30.21,WSW,237,1.0,1.0,21,0.00,,---,0.00,VWS V14.01,2013-12-27 08:04:00,
2013-12-27 00:09:00,51.1,12.5,30.21,WSW,237,1.0,1.0,21,0.00,,---,0.00,VWS V14.01,2013-12-27 08:09:00,
2013-12-27 00:14:00,51.1,12.5,30.20,WSW,237,1.0,1.0,21,0.00,,---,0.00,VWS V14.01,2013-12-27 08:14:00,
2013-12-27 00:19:00,51.1,12.5,30.20,WSW,238,1.0,1.0,21,0.00,,---,0.00,VWS V14.01,2013-12-27 08:19:00,
2013-12-27 00:24:00,51.1,12.5,30.20,WSW,238,0.0,1.0,21,0.00,,---,0.00,VWS V14.01,2013-12-27 08:24:00,
2013-12-27 00:29:00,51.0,13.5,30.21,WSW,238,1.0,1.0,22,0.00,,---,0.00,VWS V14.01,2013-12-27 08:29:00,
2013-12-27 00:34:00,50.9,12.4,30.21,WSW,237,1.0,1.0,21,0.00,,---,0.00,VWS V14.01,2013-12-27 08:34:00,
2013-12-27 00:39:00,50.7,13.3,30.21,WSW,238,0.0,1.0,22,0.00,,---,0.00,VWS V14.01,2013-12-27 08:39:00,
2013-12-27 00:44:00,50.6,13.2,30.21,WSW,239,1.0,1.0,22,0.00,,---,0.00,VWS V14.01,2013-12-27 08:44:00,
2013-12-27 00:49:00,50.6,13.2,30.21,WSW,239,0.0,1.0,22,0.00,,---,0.00,VWS V14.01,2013-12-27 08:49:00,
2013-12-27 00:54:00,50.5,15.1,30.21,WSW,239,1.0,1.0,24,0.00,,---,0.00,VWS V14.01,2013-12-27 08:54:00,
2013-12-27 00:59:00,50.5,13.1,30.21,WSW,239,1.0,1.0,22,0.00,,---,0.00,VWS V14.01,2013-12-27 08:59:00,
2013-12-27 01:04:00,50.6,13.2,30.21,WSW,239,1.0,1.0,22,0.00,,---,0.00,VWS V14.01,2013-12-27 09:04:00,
2013-12-27 01:09:00,50.4,14.0,30.20,WSW,239,1.0,1.0,23,0.00,,---,0.00,VWS V14.01,2013-12-27 09:09:00,
2013-12-27 01:14:00,50.4,14.0,30.20,WSW,239,0.0,0.0,23,0.00,,---,0.00,VWS V14.01,2013-12-27 09:14:00,
2013-12-27 01:19:00,50.3,13.9,30.20,WSW,239,0.0,1.0,23,0.00,,---,0.00,VWS V14.01,2013-12-27 09:19:00,
2013-12-27 01:24:00,50.4,14.0,30.20,WSW,239,1.0,1.0,23,0.00,,---,0.00,VWS V14.01,2013-12-27 09:24:00,
2013-12-27 01:29:00,50.4,14.0,30.20,WSW,239,0.0,1.0,23,0.00,,---,0.00,VWS V14.01,2013-12-27 09:29:00,
2013-12-27 01:34:00,50.3,15.8,30.20,WSW,238,1.0,1.0,25,0.00,,---,0.00,VWS V14.01,2013-12-27 09:34:00,
2013-12-27 01:39:00,50.1,16.6,30.20,WSW,239,1.0,1.0,26,0.00,,---,0.00,VWS V14.01,2013-12-27 09:39:00,
2013-12-27 01:44:00,50.1,16.6,30.20,WSW,239,0.0,1.0,26,0.00,,---,0.00,VWS V14.01,2013-12-27 09:44:00,
2013-12-27 01:49:00,50.2,16.6,30.20,WSW,238,1.0,1.0,26,0.00,,---,0.00,VWS V14.01,2013-12-27 09:49:00,
2013-12-27 01:54:00,50.1,17.4,30.20,WSW,239,1.0,1.0,27,0.00,,---,0.00,VWS V14.01,2013-12-27 09:54:00,
2013-12-27 02:00:00,50.1,17.4,30.21,WSW,239,1.0,1.0,27,0.00,,---,0.00,VWS V14.01,2013-12-27 10:00:00,
2013-12-27 02:05:00,50.1,17.4,30.21,WSW,239,1.0,1.0,27,0.00,,---,0.00,VWS V14.01,2013-12-27 10:05:00,
2013-12-27 02:10:00,49.2,16.7,30.21,WSW,239,1.0,1.0,27,0.00,,---,0.00,VWS V14.01,2013-12-27 10:10:00,
2013-12-27 02:15:00,49.2,16.7,30.21,WSW,239,1.0,1.0,27,0.00,,---,0.00,VWS V14.01,2013-12-27 10:15:00,
2013-12-27 02:20:00,49.2,16.7,30.20,WSW,239,1.0,1.0,27,0.00,,---,0.00,VWS V14.01,2013-12-27 10:20:00,
2013-12-27 02:25:00,49.2,16.7,30.20,WSW,239,1.0,1.0,27,0.00,,---,0.00,VWS V14.01,2013-12-27 10:25:00,
2013-12-27 02:30:00,49.2,16.7,30.20,WSW,239,1.0,1.0,27,0.00,,---,0.00,VWS V14.01,2013-12-27 10:30:00,
2013-12-27 02:35:00,49.2,16.7,30.20,WSW,239,1.0,1.0,27,0.00,,---,0.00,VWS V14.01,2013-12-27 10:35:00,
2013-12-27 02:40:00,49.2,16.7,30.19,WSW,239,1.0,1.0,27,0.00,,---,0.00,VWS V14.01,2013-12-27 10:40:00,
2013-12-27 02:45:00,49.2,16.7,30.19,WSW,239,1.0,1.0,27,0.00,,---,0.00,VWS V14.01,2013-12-27 10:45:00,
2013-12-27 02:51:00,49.2,16.7,30.19,WSW,239,1.0,1.0,27,0.00,,---,0.00,VWS V14.01,2013-12-27 10:51:00,
2013-12-27 02:56:00,49.2,16.7,30.19,WSW,239,1.0,1.0,27,0.00,,---,0.00,VWS V14.01,2013-12-27 10:56:00,
2013-12-27 03:01:00,49.2,16.7,30.19,WSW,239,1.0,1.0,27,0.00,,---,0.00,VWS V14.01,2013-12-27 11:01:00,
2013-12-27 03:06:00,49.2,16.7,30.18,WSW,239,1.0,1.0,27,0.00,,---,0.00,VWS V14.01,2013-12-27 11:06:00,
2013-12-27 03:11:00,49.2,16.7,30.18,WSW,239,1.0,1.0,27,0.00,,---,0.00,VWS V14.01,2013-12-27 11:11:00,
2013-12-27 03:16:00,49.2,16.7,30.18,WSW,239,1.0,1.0,27,0.00,,---,0.00,VWS V14.01,2013-12-27 11:16:00,
2013-12-27 03:21:00,49.2,16.7,30.18,WSW,239,1.0,1.0,27,0.00,,---,0.00,VWS V14.01,2013-12-27 11:21:00,
2013-12-27 03:26:00,49.2,16.7,30.18,WSW,239,1.0,1.0,27,0.00,,---,0.00,VWS V14.01,2013-12-27 11:26:00,
2013-12-27 03:31:00,49.2,16.7,30.18,WSW,239,1.0,1.0,27,0.00,,---,0.00,VWS V14.01,2013-12-27 11:31:00,
2013-12-27 03:36:00,49.2,16.7,30.18,WSW,239,1.0,1.0,27,0.00,,---,0.00,VWS V14.01,2013-12-27 11:36:00,
2013-12-27 03:41:00,49.2,16.7,30.18,WSW,239,1.0,1.0,27,0.00,,---,0.00,VWS V14.01,2013-12-27 11:41:00,
2013-12-27 03:46:00,49.2,16.7,30.17,WSW,239,1.0,1.0,27,0.00,,---,0.00,VWS V14.01,2013-12-27 11:46:00,
2013-12-27 03:51:00,49.2,16.7,30.17,WSW,239,1.0,1.0,27,0.00,,---,0.00,VWS V14.01,2013-12-27 11:51:00,
2013-12-27 03:56:00,49.2,16.7,30.17,WSW,239,1.0,1.0,27,0.00,,---,0.00,VWS V14.01,2013-12-27 11:56:00,
2013-12-27 04:01:00,49.2,16.7,30.17,WSW,239,1.0,1.0,27,0.00,,---,0.00,VWS V14.01,2013-12-27 12:01:00,
2013-12-27 04:06:00,49.2,16.7,30.17,WSW,239,1.0,1.0,27,0.00,,---,0.00,VWS V14.01,2013-12-27 12:06:00,
2013-12-27 04:11:00,49.2,16.7,30.17,WSW,239,1.0,1.0,27,0.00,,---,0.00,VWS V14.01,2013-12-27 12:11:00,
2013-12-27 04:16:00,49.2,16.7,30.16,WSW,239,1.0,1.0,27,0.00,,---,0.00,VWS V14.01,2013-12-27 12:16:00,
2013-12-27 04:21:00,49.2,16.7,30.16,WSW,239,1.0,1.0,27,0.00,,---,0.00,VWS V14.01,2013-12-27 12:21:00,
2013-12-27 04:26:00,49.2,16.7,30.16,WSW,239,1.0,1.0,27,0.00,,---,0.00,VWS V14.01,2013-12-27 12:26:00,
2013-12-27 04:31:00,49.2,16.7,30.16,WSW,239,1.0,1.0,27,0.00,,---,0.00,VWS V14.01,2013-12-27 12:31:00,
2013-12-27 04:36:00,49.2,16.7,30.17,WSW,239,1.0,1.0,27,0.00,,---,0.00,VWS V14.01,2013-12-27 12:36:00,
2013-12-27 04:41:00,49.2,16.7,30.17,WSW,239,1.0,1.0,27,0.00,,---,0.00,VWS V14.01,2013-12-27 12:41:00,
2013-12-27 04:46:00,49.2,16.7,30.17,WSW,239,1.0,1.0,27,0.00,,---,0.00,VWS V14.01,2013-12-27 12:46:00,
2013-12-27 04:51:00,49.2,16.7,30.16,WSW,239,1.0,1.0,27,0.00,,---,0.00,VWS V14.01,2013-12-27 12:51:00,
2013-12-27 04:56:00,49.2,16.7,30.16,WSW,239,1.0,1.0,27,0.00,,---,0.00,VWS V14.01,2013-12-27 12:56:00,
2013-12-27 05:01:00,49.2,16.7,30.16,WSW,239,1.0,1.0,27,0.00,,---,0.00,VWS V14.01,2013-12-27 13:01:00,
2013-12-27 05:06:00,49.2,16.7,30.16,WSW,239,1.0,1.0,27,0.00,,---,0.00,VWS V14.01,2013-12-27 13:06:00,
2013-12-27 05:11:00,49.2,16.7,30.16,WSW,239,1.0,1.0,27,0.00,,---,0.00,VWS V14.01,2013-12-27 13:11:00,
2013-12-27 05:16:00,49.2,16.7,30.16,WSW,239,1.0,1.0,27,0.00,,---,0.00,VWS V14.01,2013-12-27 13:16:00,
2013-12-27 05:21:00,49.2,16.7,30.16,WSW,239,1.0,1.0,27,0.00,,---,0.00,VWS V14.01,2013-12-27 13:21:00,
2013-12-27 05:26:00,49.2,16.7,30.16,WSW,239,1.0,1.0,27,0.00,,---,0.00,VWS V14.01,2013-12-27 13:26:00,
2013-12-27 05:31:00,49.2,16.7,30.16,WSW,239,1.0,1.0,27,0.00,,---,0.00,VWS V14.01,2013-12-27 13:31:00,
2013-12-27 05:36:00,49.2,16.7,30.16,WSW,239,1.0,1.0,27,0.00,,---,0.00,VWS V14.01,2013-12-27 13:36:00,
2013-12-27 05:41:00,49.2,16.7,30.16,WSW,239,1.0,1.0,27,0.00,,---,0.00,VWS V14.01,2013-12-27 13:41:00,
2013-12-27 05:46:00,49.2,16.7,30.17,WSW,239,1.0,1.0,27,0.00,,---,0.00,VWS V14.01,2013-12-27 13:46:00,
2013-12-27 05:51:00,49.2,16.7,30.17,WSW,239,1.0,1.0,27,0.00,,---,0.00,VWS V14.01,2013-12-27 13:51:00,
2013-12-27 05:56:00,49.2,16.7,30.17,WSW,239,1.0,1.0,27,0.00,,---,0.00,VWS V14.01,2013-12-27 13:56:00,
2013-12-27 06:01:00,49.2,16.7,30.17,WSW,239,1.0,1.0,27,0.00,,---,0.00,VWS V14.01,2013-12-27 14:01:00,
2013-12-27 06:06:00,49.2,16.7,30.17,WSW,239,1.0,1.0,27,0.00,,---,0.00,VWS V14.01,2013-12-27 14:06:00,
2013-12-27 06:11:00,49.2,16.7,30.17,WSW,239,1.0,1.0,27,0.00,,---,0.00,VWS V14.01,2013-12-27 14:11:00,
2013-12-27 06:16:00,49.2,16.7,30.17,WSW,239,1.0,1.0,27,0.00,,---,0.00,VWS V14.01,2013-12-27 14:16:00,
2013-12-27 06:21:00,49.2,16.7,30.17,WSW,239,1.0,1.0,27,0.00,,---,0.00,VWS V14.01,2013-12-27 14:21:00,
2013-12-27 06:26:00,49.2,16.7,30.17,WSW,239,1.0,1.0,27,0.00,,---,0.00,VWS V14.01,2013-12-27 14:26:00,
2013-12-27 06:31:00,49.2,16.7,30.17,WSW,239,1.0,1.0,27,0.00,,---,0.00,VWS V14.01,2013-12-27 14:31:00,
2013-12-27 06:36:00,49.2,16.7,30.17,WSW,239,1.0,1.0,27,0.00,,---,0.00,VWS V14.01,2013-12-27 14:36:00,
2013-12-27 06:41:00,49.2,16.7,30.17,WSW,239,1.0,1.0,27,0.00,,---,0.00,VWS V14.01,2013-12-27 14:41:00,
2013-12-27 06:46:00,49.2,16.7,30.18,WSW,239,1.0,1.0,27,0.00,,---,0.00,VWS V14.01,2013-12-27 14:46:00,
2013-12-27 06:51:00,49.2,16.7,30.17,WSW,239,1.0,1.0,27,0.00,,---,0.00,VWS V14.01,2013-12-27 14:51:00,
2013-12-27 06:56:00,49.2,16.7,30.18,WSW,239,1.0,1.0,27,0.00,,---,0.00,VWS V14.01,2013-12-27 14:56:00,
2013-12-27 07:01:00,49.2,16.7,30.17,WSW,239,1.0,1.0,27,0.00,,---,0.00,VWS V14.01,2013-12-27 15:01:00,
2013-12-27 07:06:00,49.2,16.7,30.17,WSW,239,1.0,1.0,27,0.00,,---,0.00,VWS V14.01,2013-12-27 15:06:00,
2013-12-27 07:11:00,49.2,16.7,30.17,WSW,239,1.0,1.0,27,0.00,,---,0.00,VWS V14.01,2013-12-27 15:11:00,
2013-12-27 07:16:00,49.2,16.7,30.17,WSW,239,1.0,1.0,27,0.00,,---,0.00,VWS V14.01,2013-12-27 15:16:00,
2013-12-27 07:21:00,49.2,16.7,30.17,WSW,239,1.0,1.0,27,0.00,,---,0.00,VWS V14.01,2013-12-27 15:21:00,
2013-12-27 07:26:00,49.2,16.7,30.17,WSW,239,1.0,1.0,27,0.00,,---,0.00,VWS V14.01,2013-12-27 15:26:00,
2013-12-27 07:31:00,49.2,16.7,30.17,WSW,239,1.0,1.0,27,0.00,,---,0.00,VWS V14.01,2013-12-27 15:31:00,
2013-12-27 07:36:00,49.2,16.7,30.17,WSW,239,1.0,1.0,27,0.00,,---,0.00,VWS V14.01,2013-12-27 15:36:00,
2013-12-27 07:41:00,49.2,16.7,30.17,WSW,239,1.0,1.0,27,0.00,,---,0.00,VWS V14.01,2013-12-27 15:41:00,
2013-12-27 07:46:00,49.2,16.7,30.17,WSW,239,1.0,1.0,27,0.00,,---,0.00,VWS V14.01,2013-12-27 15:46:00,
2013-12-27 07:51:00,49.2,16.7,30.17,WSW,239,1.0,1.0,27,0.00,,---,0.00,VWS V14.01,2013-12-27 15:51:00,
2013-12-27 07:56:00,49.2,16.7,30.17,WSW,239,1.0,1.0,27,0.00,,---,0.00,VWS V14.01,2013-12-27 15:56:00,
2013-12-27 08:01:00,49.2,16.7,30.17,WSW,239,1.0,1.0,27,0.00,,---,0.00,VWS V14.01,2013-12-27 16:01:00,
2013-12-27 08:06:00,49.2,16.7,30.18,WSW,239,1.0,1.0,27,0.00,,---,0.00,VWS V14.01,2013-12-27 16:06:00,
2013-12-27 08:11:00,49.7,17.1,30.18,West,281,1.0,1.0,27,0.00,,---,0.00,VWS V14.01,2013-12-27 16:11:00,
2013-12-27 08:16:00,49.8,17.2,30.18,West,281,0.0,1.0,27,0.00,,---,0.00,VWS V14.01,2013-12-27 16:16:00,
2013-12-27 08:21:00,49.8,17.2,30.18,West,281,0.0,0.0,27,0.00,,---,0.00,VWS V14.01,2013-12-27 16:21:00,
2013-12-27 08:26:00,49.9,18.1,30.18,West,281,1.0,1.0,28,0.00,,---,0.00,VWS V14.01,2013-12-27 16:26:00,
2013-12-27 08:31:00,50.0,18.2,30.19,West,281,1.0,1.0,28,0.00,,---,0.00,VWS V14.01,2013-12-27 16:31:00,
2013-12-27 08:36:00,50.3,19.3,30.19,West,281,0.0,0.0,29,0.00,,---,0.00,VWS V14.01,2013-12-27 16:36:00,
2013-12-27 08:41:00,50.4,20.1,30.19,West,281,0.0,0.0,30,0.00,,---,0.00,VWS V14.01,2013-12-27 16:41:00,
2013-12-27 08:46:00,50.6,23.3,30.19,West,281,0.0,0.0,34,0.00,,---,0.00,VWS V14.01,2013-12-27 16:46:00,
2013-12-27 08:51:00,50.7,23.4,30.19,West,281,0.0,0.0,34,0.00,,---,0.00,VWS V14.01,2013-12-27 16:51:00,
2013-12-27 08:56:00,50.8,25.5,30.19,West,281,0.0,0.0,37,0.00,,---,0.00,VWS V14.01,2013-12-27 16:56:00,
2013-12-27 09:01:00,50.8,24.8,30.19,West,281,1.0,1.0,36,0.00,,---,0.00,VWS V14.01,2013-12-27 17:01:00,
2013-12-27 09:06:00,51.2,25.8,30.19,West,281,0.0,0.0,37,0.00,,---,0.00,VWS V14.01,2013-12-27 17:06:00,
2013-12-27 09:11:00,51.5,26.1,30.19,West,281,1.0,1.0,37,0.00,,---,0.00,VWS V14.01,2013-12-27 17:11:00,
2013-12-27 09:16:00,51.8,25.7,30.19,West,281,0.0,1.0,36,0.00,,---,0.00,VWS V14.01,2013-12-27 17:16:00,
2013-12-27 09:21:00,52.2,25.4,30.19,West,281,1.0,1.0,35,0.00,,---,0.00,VWS V14.01,2013-12-27 17:21:00,
2013-12-27 09:26:00,52.4,24.2,30.19,West,281,1.0,1.0,33,0.00,,---,0.00,VWS V14.01,2013-12-27 17:26:00,
2013-12-27 09:31:00,52.7,24.4,30.19,West,281,1.0,1.0,33,0.00,,---,0.00,VWS V14.01,2013-12-27 17:31:00,
2013-12-27 09:36:00,53.0,26.1,30.19,West,281,1.0,1.0,35,0.00,,---,0.00,VWS V14.01,2013-12-27 17:36:00,
2013-12-27 09:41:00,53.2,24.9,30.19,West,281,1.0,1.0,33,0.00,,---,0.00,VWS V14.01,2013-12-27 17:41:00,
2013-12-27 09:46:00,53.5,26.5,30.19,West,281,0.0,0.0,35,0.00,,---,0.00,VWS V14.01,2013-12-27 17:46:00,
2013-12-27 09:51:00,53.7,28.1,30.19,West,281,0.0,0.0,37,0.00,,---,0.00,VWS V14.01,2013-12-27 17:51:00,
2013-12-27 09:56:00,53.8,30.1,30.19,West,281,0.0,0.0,40,0.00,,---,0.00,VWS V14.01,2013-12-27 17:56:00,
2013-12-27 10:01:00,53.8,30.7,30.19,West,281,0.0,1.0,41,0.00,,---,0.00,VWS V14.01,2013-12-27 18:01:00,
2013-12-27 10:06:00,54.0,30.2,30.20,West,281,0.0,0.0,40,0.00,,---,0.00,VWS V14.01,2013-12-27 18:06:00,
2013-12-27 10:11:00,54.1,31.5,30.20,West,281,0.0,0.0,42,0.00,,---,0.00,VWS V14.01,2013-12-27 18:11:00,
2013-12-27 10:16:00,54.2,32.2,30.20,West,281,0.0,0.0,43,0.00,,---,0.00,VWS V14.01,2013-12-27 18:16:00,
2013-12-27 10:21:00,54.3,32.9,30.20,West,281,0.0,0.0,44,0.00,,---,0.00,VWS V14.01,2013-12-27 18:21:00,
2013-12-27 10:26:00,54.4,33.5,30.19,West,281,0.0,0.0,45,0.00,,---,0.00,VWS V14.01,2013-12-27 18:26:00,
2013-12-27 10:31:00,54.4,34.6,30.19,West,281,0.0,0.0,47,0.00,,---,0.00,VWS V14.01,2013-12-27 18:31:00,
2013-12-27 10:36:00,54.5,33.6,30.19,West,281,0.0,0.0,45,0.00,,---,0.00,VWS V14.01,2013-12-27 18:36:00,
2013-12-27 10:41:00,54.5,33.0,30.19,West,281,0.0,0.0,44,0.00,,---,0.00,VWS V14.01,2013-12-27 18:41:00,
2013-12-27 10:46:00,54.6,32.6,30.19,West,281,0.0,0.0,43,0.00,,---,0.00,VWS V14.01,2013-12-27 18:46:00,
2013-12-27 10:51:00,54.9,31.7,30.19,West,281,0.0,0.0,41,0.00,,---,0.00,VWS V14.01,2013-12-27 18:51:00,
2013-12-27 10:56:00,55.3,31.4,30.19,West,281,0.0,0.0,40,0.00,,---,0.00,VWS V14.01,2013-12-27 18:56:00,
2013-12-27 11:01:00,55.7,32.4,30.18,West,281,0.0,0.0,41,0.00,,---,0.00,VWS V14.01,2013-12-27 19:01:00,
2013-12-27 11:06:00,56.2,32.8,30.18,West,281,0.0,0.0,41,0.00,,---,0.00,VWS V14.01,2013-12-27 19:06:00,
2013-12-27 11:11:00,56.6,29.3,30.18,West,281,0.0,0.0,35,0.00,,---,0.00,VWS V14.01,2013-12-27 19:11:00,
2013-12-27 11:16:00,56.9,23.3,30.18,West,281,0.0,0.0,27,0.00,,---,0.00,VWS V14.01,2013-12-27 19:16:00,
2013-12-27 11:21:00,57.4,22.8,30.17,WNW,285,0.0,1.0,26,0.00,,---,0.00,VWS V14.01,2013-12-27 19:21:00,
2013-12-27 11:26:00,57.7,18.1,30.17,WNW,285,0.0,0.0,21,0.00,,---,0.00,VWS V14.01,2013-12-27 19:26:00,
2013-12-27 11:31:00,58.2,28.5,30.17,WNW,285,0.0,0.0,32,0.00,,---,0.00,VWS V14.01,2013-12-27 19:31:00,
2013-12-27 11:37:00,58.5,15.2,30.17,WNW,288,1.0,3.0,18,0.00,,---,0.00,VWS V14.01,2013-12-27 19:37:00,
2013-12-27 11:42:00,58.9,15.5,30.17,West,270,0.0,2.0,18,0.00,,---,0.00,VWS V14.01,2013-12-27 19:42:00,
2013-12-27 11:47:00,59.1,18.1,30.17,ENE,71,2.0,2.0,20,0.00,,---,0.00,VWS V14.01,2013-12-27 19:47:00,
2013-12-27 11:52:00,59.2,17.0,30.17,NNE,19,1.0,1.0,19,0.00,,---,0.00,VWS V14.01,2013-12-27 19:52:00,
2013-12-27 11:57:00,59.1,25.2,30.16,ESE,122,0.0,0.0,27,0.00,,---,0.00,VWS V14.01,2013-12-27 19:57:00,
2013-12-27 12:02:00,58.8,30.5,30.16,ESE,121,0.0,1.0,34,0.00,,---,0.00,VWS V14.01,2013-12-27 20:02:00,
2013-12-27 12:07:00,58.7,23.9,30.16,ESE,122,1.0,1.0,26,0.00,,---,0.00,VWS V14.01,2013-12-27 20:07:00,
2013-12-27 12:12:00,58.6,22.9,30.16,ESE,121,0.0,0.0,25,0.00,,---,0.00,VWS V14.01,2013-12-27 20:12:00,
2013-12-27 12:17:00,58.8,23.1,30.16,SE,135,0.0,0.0,25,0.00,,---,0.00,VWS V14.01,2013-12-27 20:17:00,
2013-12-27 12:22:00,58.8,19.0,30.16,SE,139,1.0,1.0,21,0.00,,---,0.00,VWS V14.01,2013-12-27 20:22:00,
2013-12-27 12:27:00,58.9,28.3,30.15,SE,136,0.0,0.0,31,0.00,,---,0.00,VWS V14.01,2013-12-27 20:27:00,
2013-12-27 12:32:00,58.9,29.9,30.15,SE,136,0.0,0.0,33,0.00,,---,0.00,VWS V14.01,2013-12-27 20:32:00,
2013-12-27 12:37:00,58.8,30.5,30.15,SE,134,0.0,1.0,34,0.00,,---,0.00,VWS V14.01,2013-12-27 20:37:00,
2013-12-27 12:42:00,58.8,32.6,30.15,SE,141,0.0,0.0,37,0.00,,---,0.00,VWS V14.01,2013-12-27 20:42:00,
2013-12-27 12:47:00,58.8,32.6,30.14,ESE,106,0.0,1.0,37,0.00,,---,0.00,VWS V14.01,2013-12-27 20:47:00,
2013-12-27 12:52:00,59.0,30.7,30.14,ESE,106,0.0,0.0,34,0.00,,---,0.00,VWS V14.01,2013-12-27 20:52:00,
2013-12-27 12:57:00,59.2,23.4,30.14,SSE,151,0.0,0.0,25,0.00,,---,0.00,VWS V14.01,2013-12-27 20:57:00,
2013-12-27 13:02:00,59.4,23.6,30.14,ENE,72,0.0,0.0,25,0.00,,---,0.00,VWS V14.01,2013-12-27 21:02:00,
2013-12-27 13:07:00,59.5,29.6,30.14,ENE,72,0.0,0.0,32,0.00,,---,0.00,VWS V14.01,2013-12-27 21:07:00,
2013-12-27 13:12:00,60.0,28.5,30.13,ENE,72,0.0,0.0,30,0.00,,---,0.00,VWS V14.01,2013-12-27 21:12:00,
2013-12-27 13:17:00,60.0,26.0,30.13,ENE,72,1.0,1.0,27,0.00,,---,0.00,VWS V14.01,2013-12-27 21:17:00,
2013-12-27 13:23:00,59.9,30.0,30.13,ENE,72,0.0,1.0,32,0.00,,---,0.00,VWS V14.01,2013-12-27 21:23:00,
2013-12-27 13:28:00,59.9,30.8,30.13,ENE,72,0.0,0.0,33,0.00,,---,0.00,VWS V14.01,2013-12-27 21:28:00,
2013-12-27 13:33:00,59.9,27.6,30.13,North,356,0.0,0.0,29,0.00,,---,0.00,VWS V14.01,2013-12-27 21:33:00,
2013-12-27 13:38:00,59.8,26.6,30.12,North,5,0.0,0.0,28,0.00,,---,0.00,VWS V14.01,2013-12-27 21:38:00,
2013-12-27 13:43:00,59.8,27.5,30.12,North,4,0.0,0.0,29,0.00,,---,0.00,VWS V14.01,2013-12-27 21:43:00,
2013-12-27 13:48:00,59.8,28.3,30.12,SE,135,0.0,2.0,30,0.00,,---,0.00,VWS V14.01,2013-12-27 21:48:00,
2013-12-27 13:53:00,59.6,23.8,30.12,SE,136,0.0,1.0,25,0.00,,---,0.00,VWS V14.01,2013-12-27 21:53:00,
2013-12-27 13:58:00,59.6,24.7,30.12,SE,137,0.0,1.0,26,0.00,,---,0.00,VWS V14.01,2013-12-27 21:58:00,
2013-12-27 14:03:00,59.5,28.1,30.12,SE,137,0.0,0.0,30,0.00,,---,0.00,VWS V14.01,2013-12-27 22:03:00,
2013-12-27 14:08:00,59.4,31.0,30.12,SE,136,0.0,0.0,34,0.00,,---,0.00,VWS V14.01,2013-12-27 22:08:00,
2013-12-27 14:13:00,59.0,31.4,30.12,SE,137,0.0,0.0,35,0.00,,---,0.00,VWS V14.01,2013-12-27 22:13:00,
2013-12-27 14:18:00,58.7,31.8,30.12,SE,136,0.0,0.0,36,0.00,,---,0.00,VWS V14.01,2013-12-27 22:18:00,
2013-12-27 14:23:00,58.3,32.8,30.12,SE,137,0.0,0.0,38,0.00,,---,0.00,VWS V14.01,2013-12-27 22:23:00,
2013-12-27 14:28:00,58.1,32.7,30.12,SE,136,0.0,0.0,38,0.00,,---,0.00,VWS V14.01,2013-12-27 22:28:00,
2013-12-27 14:33:00,57.7,33.6,30.11,SE,137,0.0,0.0,40,0.00,,---,0.00,VWS V14.01,2013-12-27 22:33:00,
2013-12-27 14:38:00,57.3,32.6,30.11,SE,137,0.0,0.0,39,0.00,,---,0.00,VWS V14.01,2013-12-27 22:38:00,
2013-12-27 14:43:00,56.9,32.8,30.11,SE,136,0.0,0.0,40,0.00,,---,0.00,VWS V14.01,2013-12-27 22:43:00,
2013-12-27 14:48:00,56.6,30.6,30.11,SE,136,0.0,0.0,37,0.00,,---,0.00,VWS V14.01,2013-12-27 22:48:00,
2013-12-27 14:53:00,56.3,30.4,30.11,SE,135,0.0,0.0,37,0.00,,---,0.00,VWS V14.01,2013-12-27 22:53:00,
2013-12-27 14:58:00,56.1,29.5,30.11,SE,135,0.0,0.0,36,0.00,,---,0.00,VWS V14.01,2013-12-27 22:58:00,
2013-12-27 15:03:00,55.8,29.9,30.10,SE,136,0.0,0.0,37,0.00,,---,0.00,VWS V14.01,2013-12-27 23:03:00,
2013-12-27 15:08:00,55.4,28.9,30.11,SE,135,0.0,1.0,36,0.00,,---,0.00,VWS V14.01,2013-12-27 23:08:00,
2013-12-27 15:13:00,55.1,29.3,30.10,SE,135,0.0,0.0,37,0.00,,---,0.00,VWS V14.01,2013-12-27 23:13:00,
2013-12-27 15:19:00,54.6,28.9,30.10,SE,136,0.0,0.0,37,0.00,,---,0.00,VWS V14.01,2013-12-27 23:19:00,
2013-12-27 15:24:00,54.4,27.3,30.10,SE,136,0.0,0.0,35,0.00,,---,0.00,VWS V14.01,2013-12-27 23:24:00,
2013-12-27 15:29:00,54.1,29.1,30.10,SE,136,0.0,0.0,38,0.00,,---,0.00,VWS V14.01,2013-12-27 23:29:00,
2013-12-27 15:34:00,53.8,27.5,30.10,SE,136,0.0,0.0,36,0.00,,---,0.00,VWS V14.01,2013-12-27 23:34:00,
2013-12-27 15:39:00,53.6,26.6,30.10,SE,135,0.0,0.0,35,0.00,,---,0.00,VWS V14.01,2013-12-27 23:39:00,
2013-12-27 15:44:00,53.3,25.7,30.10,SE,136,0.0,0.0,34,0.00,,---,0.00,VWS V14.01,2013-12-27 23:44:00,
2013-12-27 15:49:00,53.0,25.4,30.10,SE,136,0.0,0.0,34,0.00,,---,0.00,VWS V14.01,2013-12-27 23:49:00,
2013-12-27 15:54:00,52.8,25.9,30.10,SE,136,0.0,0.0,35,0.00,,---,0.00,VWS V14.01,2013-12-27 23:54:00,
2013-12-27 15:59:00,52.6,25.0,30.10,SE,135,0.0,0.0,34,0.00,,---,0.00,VWS V14.01,2013-12-27 23:59:00,
2013-12-27 16:04:00,52.5,24.2,30.10,SE,135,0.0,0.0,33,0.00,,---,0.00,VWS V14.01,2013-12-28 00:04:00,
2013-12-27 16:09:00,52.3,24.1,30.10,SE,136,0.0,0.0,33,0.00,,---,0.00,VWS V14.01,2013-12-28 00:09:00,
2013-12-27 16:14:00,52.1,24.6,30.10,SE,136,0.0,0.0,34,0.00,,---,0.00,VWS V14.01,2013-12-28 00:14:00,
2013-12-27 16:19:00,51.9,23.7,30.09,SE,135,0.0,0.0,33,0.00,,---,0.00,VWS V14.01,2013-12-28 00:19:00,
2013-12-27 16:24:00,51.8,24.3,30.09,SE,136,0.0,0.0,34,0.00,,---,0.00,VWS V14.01,2013-12-28 00:24:00,
2013-12-27 16:29:00,51.6,23.5,30.09,SE,136,0.0,0.0,33,0.00,,---,0.00,VWS V14.01,2013-12-28 00:29:00,
2013-12-27 16:34:00,51.5,22.6,30.09,SE,135,0.0,1.0,32,0.00,,---,0.00,VWS V14.01,2013-12-28 00:34:00,
2013-12-27 16:39:00,51.3,23.2,30.09,SE,134,1.0,1.0,33,0.00,,---,0.00,VWS V14.01,2013-12-28 00:39:00,
2013-12-27 16:44:00,51.2,23.1,30.09,SE,134,0.0,0.0,33,0.00,,---,0.00,VWS V14.01,2013-12-28 00:44:00,
2013-12-27 16:49:00,51.1,22.3,30.09,SE,136,0.0,0.0,32,0.00,,---,0.00,VWS V14.01,2013-12-28 00:49:00,
2013-12-27 16:54:00,51.2,22.4,30.09,SE,136,0.0,0.0,32,0.00,,---,0.00,VWS V14.01,2013-12-28 00:54:00,
2013-12-27 16:59:00,51.0,21.5,30.09,SE,136,0.0,0.0,31,0.00,,---,0.00,VWS V14.01,2013-12-28 00:59:00,
2013-12-27 17:04:00,50.9,19.8,30.09,SE,135,1.0,1.0,29,0.00,,---,0.00,VWS V14.01,2013-12-28 01:04:00,
2013-12-27 17:07:00,50.9,19.0,30.09,SE,136,0.0,0.0,28,0.00,,---,0.00,VWS V14.01,2013-12-28 01:07:00,
2013-12-27 17:13:00,50.9,18.1,30.10,SE,135,0.0,0.0,27,0.00,,---,0.00,VWS V14.01,2013-12-28 01:13:00,
2013-12-27 17:18:00,51.0,18.2,30.10,SE,135,0.0,1.0,27,0.00,,---,0.00,VWS V14.01,2013-12-28 01:18:00,
2013-12-27 17:23:00,51.0,17.3,30.10,SE,136,0.0,1.0,26,0.00,,---,0.00,VWS V14.01,2013-12-28 01:23:00,
2013-12-27 17:29:00,51.0,16.4,30.10,SE,135,0.0,0.0,25,0.00,,---,0.00,VWS V14.01,2013-12-28 01:29:00,
2013-12-27 17:34:00,50.9,16.4,30.10,SE,136,0.0,0.0,25,0.00,,---,0.00,VWS V14.01,2013-12-28 01:34:00,
2013-12-27 17:40:00,50.7,16.2,30.10,SE,136,0.0,0.0,25,0.00,,---,0.00,VWS V14.01,2013-12-28 01:40:00,
2013-12-27 17:45:00,50.5,16.0,30.11,SE,136,1.0,1.0,25,0.00,,---,0.00,VWS V14.01,2013-12-28 01:45:00,
2013-12-27 17:50:00,50.4,15.9,30.11,SE,135,0.0,0.0,25,0.00,,---,0.00,VWS V14.01,2013-12-28 01:50:00,
2013-12-27 17:55:00,50.1,15.7,30.11,SE,135,0.0,0.0,25,0.00,,---,0.00,VWS V14.01,2013-12-28 01:55:00,
2013-12-27 18:00:00,50.1,14.7,30.11,SE,136,1.0,1.0,24,0.00,,---,0.00,VWS V14.01,2013-12-28 02:00:00,
2013-12-27 18:05:00,50.0,14.6,30.11,SE,135,0.0,0.0,24,0.00,,---,0.00,VWS V14.01,2013-12-28 02:05:00,
2013-12-27 18:10:00,50.0,15.6,30.11,SE,135,0.0,0.0,25,0.00,,---,0.00,VWS V14.01,2013-12-28 02:10:00,
2013-12-27 18:15:00,49.8,15.4,30.11,SE,136,0.0,0.0,25,0.00,,---,0.00,VWS V14.01,2013-12-28 02:15:00,
2013-12-27 18:20:00,49.6,15.2,30.11,SE,135,1.0,1.0,25,0.00,,---,0.00,VWS V14.01,2013-12-28 02:20:00,
2013-12-27 18:25:00,49.4,14.1,30.11,SE,136,0.0,0.0,24,0.00,,---,0.00,VWS V14.01,2013-12-28 02:25:00,
2013-12-27 18:30:00,49.2,14.0,30.12,SE,135,1.0,1.0,24,0.00,,---,0.00,VWS V14.01,2013-12-28 02:30:00,
2013-12-27 18:35:00,49.1,13.9,30.12,SE,136,0.0,1.0,24,0.00,,---,0.00,VWS V14.01,2013-12-28 02:35:00,
2013-12-27 18:40:00,48.9,12.8,30.12,SE,136,0.0,1.0,23,0.00,,---,0.00,VWS V14.01,2013-12-28 02:40:00,
2013-12-27 18:45:00,48.7,12.6,30.12,SE,135,0.0,0.0,23,0.00,,---,0.00,VWS V14.01,2013-12-28 02:45:00,
2013-12-27 18:50:00,48.5,11.4,30.12,SE,135,0.0,0.0,22,0.00,,---,0.00,VWS V14.01,2013-12-28 02:50:00,
2013-12-27 18:55:00,48.3,11.2,30.12,SE,136,0.0,0.0,22,0.00,,---,0.00,VWS V14.01,2013-12-28 02:55:00,
2013-12-27 19:00:00,48.1,11.1,30.12,SE,136,1.0,1.0,22,0.00,,---,0.00,VWS V14.01,2013-12-28 03:00:00,
2013-12-27 19:05:00,47.9,10.9,30.12,SE,136,1.0,1.0,22,0.00,,---,0.00,VWS V14.01,2013-12-28 03:05:00,
2013-12-27 19:10:00,47.7,10.7,30.12,SE,136,0.0,0.0,22,0.00,,---,0.00,VWS V14.01,2013-12-28 03:10:00,
2013-12-27 19:15:00,47.7,12.7,30.12,SE,136,0.0,0.0,24,0.00,,---,0.00,VWS V14.01,2013-12-28 03:15:00,
2013-12-27 19:20:00,47.4,12.4,30.11,SE,136,1.0,1.0,24,0.00,,---,0.00,VWS V14.01,2013-12-28 03:20:00,
2013-12-27 19:25:00,47.3,12.4,30.11,SE,135,0.0,1.0,24,0.00,,---,0.00,VWS V14.01,2013-12-28 03:25:00,
2013-12-27 19:30:00,47.1,13.1,30.11,SE,136,1.0,1.0,25,0.00,,---,0.00,VWS V14.01,2013-12-28 03:30:00,
2013-12-27 19:35:00,47.0,13.0,30.11,SE,135,1.0,1.0,25,0.00,,---,0.00,VWS V14.01,2013-12-28 03:35:00,
2013-12-27 19:40:00,46.9,12.9,30.11,SE,134,1.0,1.0,25,0.00,,---,0.00,VWS V14.01,2013-12-28 03:40:00,
2013-12-27 19:45:00,46.9,12.0,30.11,SE,134,1.0,1.0,24,0.00,,---,0.00,VWS V14.01,2013-12-28 03:45:00,
2013-12-27 19:50:00,47.0,13.0,30.11,SE,134,1.0,1.0,25,0.00,,---,0.00,VWS V14.01,2013-12-28 03:50:00,
2013-12-27 19:55:00,46.9,12.9,30.11,SE,134,0.0,1.0,25,0.00,,---,0.00,VWS V14.01,2013-12-28 03:55:00,
2013-12-27 20:00:00,46.7,14.5,30.11,SE,134,0.0,0.0,27,0.00,,---,0.00,VWS V14.01,2013-12-28 04:00:00,
2013-12-27 20:06:00,46.6,14.4,30.11,SE,134,1.0,1.0,27,0.00,,---,0.00,VWS V14.01,2013-12-28 04:06:00,
2013-12-27 20:11:00,46.5,14.3,30.11,SE,134,1.0,1.0,27,0.00,,---,0.00,VWS V14.01,2013-12-28 04:11:00,
2013-12-27 20:16:00,46.5,13.5,30.11,SE,134,0.0,0.0,26,0.00,,---,0.00,VWS V14.01,2013-12-28 04:16:00,
2013-12-27 20:21:00,46.6,13.6,30.11,SE,134,0.0,0.0,26,0.00,,---,0.00,VWS V14.01,2013-12-28 04:21:00,
2013-12-27 20:26:00,46.4,14.2,30.11,SE,134,0.0,1.0,27,0.00,,---,0.00,VWS V14.01,2013-12-28 04:26:00,
2013-12-27 20:31:00,46.3,13.3,30.11,SE,134,0.0,0.0,26,0.00,,---,0.00,VWS V14.01,2013-12-28 04:31:00,
2013-12-27 20:36:00,46.3,14.2,30.11,SE,134,0.0,0.0,27,0.00,,---,0.00,VWS V14.01,2013-12-28 04:36:00,
2013-12-27 20:41:00,46.1,14.0,30.11,SE,134,1.0,1.0,27,0.00,,---,0.00,VWS V14.01,2013-12-28 04:41:00,
2013-12-27 20:46:00,46.1,14.0,30.10,SE,132,1.0,1.0,27,0.00,,---,0.00,VWS V14.01,2013-12-28 04:46:00,
2013-12-27 20:51:00,46.0,13.9,30.10,SE,133,0.0,0.0,27,0.00,,---,0.00,VWS V14.01,2013-12-28 04:51:00,
2013-12-27 20:56:00,46.0,12.2,30.10,SE,132,0.0,0.0,25,0.00,,---,0.00,VWS V14.01,2013-12-28 04:56:00,
2013-12-27 21:01:00,45.9,13.0,30.10,SE,132,1.0,1.0,26,0.00,,---,0.00,VWS V14.01,2013-12-28 05:01:00,
2013-12-27 21:05:00,45.8,12.9,30.10,SE,132,0.0,0.0,26,0.00,,---,0.00,VWS V14.01,2013-12-28 05:05:00,
2013-12-27 21:06:00,45.8,12.0,30.10,SE,132,0.0,0.0,25,0.00,,---,0.00,VWS V14.01,2013-12-28 05:06:00,
2013-12-27 21:07:00,45.8,12.0,30.10,SE,132,0.0,0.0,25,0.00,,---,0.00,VWS V14.01,2013-12-28 05:07:00,
2013-12-27 21:13:00,45.8,12.0,30.10,SE,131,1.0,1.0,25,0.00,,---,0.00,VWS V14.01,2013-12-28 05:13:00,
2013-12-27 21:16:00,45.8,12.0,30.10,North,4,1.0,1.0,25,0.00,,---,0.00,VWS V14.01,2013-12-28 05:16:00,
2013-12-27 21:21:00,45.8,12.0,30.10,North,4,1.0,1.0,25,0.00,,---,0.00,VWS V14.01,2013-12-28 05:21:00,
2013-12-27 21:26:00,45.9,11.2,30.09,North,4,1.0,1.0,24,0.00,,---,0.00,VWS V14.01,2013-12-28 05:26:00,
2013-12-27 21:31:00,46.0,12.2,30.09,North,360,1.0,1.0,25,0.00,,---,0.00,VWS V14.01,2013-12-28 05:31:00,
2013-12-27 21:36:00,46.0,12.2,30.09,North,359,1.0,1.0,25,0.00,,---,0.00,VWS V14.01,2013-12-28 05:36:00,
2013-12-27 21:41:00,45.9,13.0,30.09,North,359,0.0,0.0,26,0.00,,---,0.00,VWS V14.01,2013-12-28 05:41:00,
2013-12-27 21:46:00,45.8,11.1,30.09,North,360,1.0,1.0,24,0.00,,---,0.00,VWS V14.01,2013-12-28 05:46:00,
2013-12-27 21:52:00,45.9,11.2,30.09,North,360,1.0,1.0,24,0.00,,---,0.00,VWS V14.01,2013-12-28 05:52:00,
2013-12-27 21:57:00,45.9,10.2,30.10,North,360,1.0,1.0,23,0.00,,---,0.00,VWS V14.01,2013-12-28 05:57:00,
2013-12-27 22:02:00,45.9,10.2,30.10,North,360,1.0,1.0,23,0.00,,---,0.00,VWS V14.01,2013-12-28 06:02:00,
2013-12-27 22:07:00,45.9,11.2,30.09,North,360,1.0,1.0,24,0.00,,---,0.00,VWS V14.01,2013-12-28 06:07:00,
2013-12-27 22:12:00,45.9,10.2,30.09,North,360,1.0,1.0,23,0.00,,---,0.00,VWS V14.01,2013-12-28 06:12:00,
2013-12-27 22:17:00,45.9,9.2,30.09,North,360,1.0,1.0,22,0.00,,---,0.00,VWS V14.01,2013-12-28 06:17:00,
2013-12-27 22:22:00,45.9,9.2,30.09,North,360,0.0,1.0,22,0.00,,---,0.00,VWS V14.01,2013-12-28 06:22:00,
2013-12-27 22:27:00,45.8,10.1,30.09,North,360,1.0,1.0,23,0.00,,---,0.00,VWS V14.01,2013-12-28 06:27:00,
2013-12-27 22:32:00,45.7,9.1,30.09,North,360,1.0,1.0,22,0.00,,---,0.00,VWS V14.01,2013-12-28 06:32:00,
2013-12-27 22:37:00,45.8,9.1,30.08,North,360,0.0,1.0,22,0.00,,---,0.00,VWS V14.01,2013-12-28 06:37:00,
2013-12-27 22:42:00,45.7,10.0,30.08,North,359,1.0,1.0,23,0.00,,---,0.00,VWS V14.01,2013-12-28 06:42:00,
2013-12-27 22:47:00,45.5,9.9,30.08,North,360,1.0,1.0,23,0.00,,---,0.00,VWS V14.01,2013-12-28 06:47:00,
2013-12-27 22:52:00,45.5,8.9,30.09,North,360,1.0,1.0,22,0.00,,---,0.00,VWS V14.01,2013-12-28 06:52:00,
2013-12-27 22:57:00,45.4,10.7,30.09,North,360,1.0,1.0,24,0.00,,---,0.00,VWS V14.01,2013-12-28 06:57:00,
2013-12-27 23:02:00,45.3,9.7,30.09,North,360,0.0,1.0,23,0.00,,---,0.00,VWS V14.01,2013-12-28 07:02:00,
2013-12-27 23:07:00,45.3,9.7,30.08,North,360,0.0,1.0,23,0.00,,---,0.00,VWS V14.01,2013-12-28 07:07:00,
2013-12-27 23:12:00,45.3,9.7,30.08,North,359,1.0,1.0,23,0.00,,---,0.00,VWS V14.01,2013-12-28 07:12:00,
2013-12-27 23:17:00,45.2,9.6,30.08,North,360,1.0,1.0,23,0.00,,---,0.00,VWS V14.01,2013-12-28 07:17:00,
2013-12-27 23:22:00,45.1,10.5,30.08,North,360,1.0,1.0,24,0.00,,---,0.00,VWS V14.01,2013-12-28 07:22:00,
2013-12-27 23:27:00,45.1,9.5,30.08,North,357,1.0,1.0,23,0.00,,---,0.00,VWS V14.01,2013-12-28 07:27:00,
2013-12-27 23:32:00,45.3,8.7,30.08,North,357,1.0,1.0,22,0.00,,---,0.00,VWS V14.01,2013-12-28 07:32:00,
2013-12-27 23:37:00,45.2,9.6,30.08,North,357,1.0,1.0,23,0.00,,---,0.00,VWS V14.01,2013-12-28 07:37:00,
2013-12-27 23:42:00,45.1,9.5,30.08,North,357,1.0,1.0,23,0.00,,---,0.00,VWS V14.01,2013-12-28 07:42:00,
2013-12-27 23:47:00,45.1,9.5,30.08,North,357,1.0,1.0,23,0.00,,---,0.00,VWS V14.01,2013-12-28 07:47:00,
2013-12-27 23:52:00,45.2,9.6,30.08,North,357,0.0,1.0,23,0.00,,---,0.00,VWS V14.01,2013-12-28 07:52:00,
2013-12-27 23:57:00,45.1,9.5,30.08,North,357,1.0,1.0,23,0.00,,---,0.00,VWS V14.01,2013-12-28 07:57:00,